Weather History for KPBH - January, 2013

Change the Weather History Date:

Friday, January 25, 2013

  Actual Average Record
Temperature  
Mean Temperature 11 °F -  
Max Temperature 17 °F 21 °F 41 °F (2002)
Min Temperature 5 °F 3 °F -14 °F (1997)
Degree Days  
Heating Degree Days 54    
Moisture  
Dew Point 9 °F    
Average Humidity 84    
Maximum Humidity 92    
Minimum Humidity 73    
Precipitation  
Precipitation 0.00 in - - ()
Sea Level Pressure  
Sea Level Pressure 29.98 in    
Wind  
Wind Speed 7 mph (WSW)    
Max Wind Speed 10 mph    
Max Gust Speed 17 mph    
Visibility 4 miles    
Events Snow    
Averages and records for this station are not official NWS values.
T = Trace of Precipitation, MM = Missing Value Source: NWS Daily Summary

Daily Weather History Graph

Daily Weather History Graph

Search for Another Location

Airport or City:

Trip Planner

Search our weather history database for the weather conditions in past years. The results will help you decide how hot, cold, wet, or windy it might be!

Date:

Astronomy

Jan. 25, 2013 Rise Set
Actual Time 7:30 AM CST 4:58 PM CST
Civil Twilight 6:58 AM CST 5:30 PM CST
Nautical Twilight 6:22 AM CST 6:06 PM CST
Astronomical Twilight 5:46 AM CST 6:41 PM CST
Moon 3:55 PM CST (1/25) 6:10 AM CST (1/25)
Length of Visible Light 10h 32m
Length of Day
9h 27m
Waxing Gibbous, 98% of the Moon is Illuminated
Jan 25
Waxing Gibbous
Jan 26
Full
Feb 3
Last Quarter
Feb 10
New
Feb 17
First Quarter

Hourly Weather History & Observations

Time (CST) Temp. Windchill Dew Point Humidity Pressure Visibility Wind Dir Wind Speed Gust Speed Precip Events Conditions
12:15 AM 10.4 °F -3.3 °F 3.2 °F 73% 30.18 in 10.0 mi SSE 10.4 mph - N/A   Overcast
12:35 AM 10.4 °F -2.4 °F 3.2 °F 73% 30.16 in 10.0 mi SSE 9.2 mph 16.1 mph N/A   Overcast
12:55 AM 10.4 °F -3.3 °F 3.2 °F 73% 30.13 in 10.0 mi SSE 10.4 mph 16.1 mph N/A Snow Light Snow
1:15 AM 10.4 °F -3.3 °F 5.0 °F 79% 30.12 in 4.0 mi South 10.4 mph - N/A Snow Light Snow
1:35 AM 10.4 °F -2.4 °F 6.8 °F 85% 30.12 in 2.0 mi South 9.2 mph - N/A Snow Light Snow
1:55 AM 10.4 °F -1.5 °F 6.8 °F 85% 30.11 in 2.5 mi South 8.1 mph - N/A Snow Light Snow
2:15 AM 10.4 °F -3.3 °F 6.8 °F 85% 30.09 in 2.0 mi South 10.4 mph 17.3 mph N/A Snow Light Snow
2:35 AM 10.4 °F -2.4 °F 8.6 °F 92% 30.08 in 1.5 mi South 9.2 mph - N/A Snow Light Snow
2:55 AM 10.4 °F -1.5 °F 8.6 °F 92% 30.06 in 2.5 mi South 8.1 mph - N/A Snow Light Snow
3:15 AM 10.4 °F -2.4 °F 8.6 °F 92% 30.05 in 2.0 mi South 9.2 mph - N/A Snow Light Snow
3:35 AM 10.4 °F -1.5 °F 8.6 °F 92% 30.04 in 3.0 mi South 8.1 mph - N/A Snow Light Snow
3:55 AM 12.2 °F -0.2 °F 8.6 °F 85% 30.02 in 4.0 mi South 9.2 mph - N/A Snow Light Snow
4:15 AM 12.2 °F 0.7 °F 8.6 °F 85% 30.00 in 3.0 mi South 8.1 mph - N/A Snow Light Snow
4:35 AM 12.2 °F 0.7 °F 8.6 °F 85% 29.99 in 3.0 mi South 8.1 mph - N/A Snow Light Snow
4:55 AM 12.2 °F 1.7 °F 8.6 °F 85% 29.97 in 3.0 mi South 6.9 mph - N/A Snow Light Snow
5:15 AM 12.2 °F -0.2 °F 8.6 °F 85% 29.95 in 4.0 mi South 9.2 mph - N/A Snow Light Snow
5:35 AM 12.2 °F -0.2 °F 8.6 °F 85% 29.95 in 4.0 mi SSW 9.2 mph - N/A Snow Light Snow
5:55 AM 12.2 °F 1.7 °F 8.6 °F 85% 29.94 in 2.5 mi SSW 6.9 mph - N/A Snow Light Snow
6:15 AM 12.2 °F 2.9 °F 10.4 °F 92% 29.93 in 2.0 mi SSW 5.8 mph - N/A Snow Light Snow
6:35 AM 12.2 °F 0.7 °F 10.4 °F 92% 29.92 in 1.8 mi SSW 8.1 mph - N/A Snow Light Snow
6:55 AM 12.2 °F 0.7 °F 10.4 °F 92% 29.91 in 1.8 mi SSW 8.1 mph - N/A Snow Light Snow
7:35 AM 12.2 °F 0.7 °F 10.4 °F 92% 29.89 in 2.0 mi SSW 8.1 mph - N/A Snow Light Snow
7:55 AM 12.2 °F 0.7 °F 10.4 °F 92% 29.89 in 7.0 mi South 8.1 mph - N/A Snow Light Snow
8:15 AM 12.2 °F 1.7 °F 10.4 °F 92% 29.88 in 2.5 mi SSW 6.9 mph - N/A Snow Light Snow
8:35 AM 14.0 °F 5.1 °F 10.4 °F 86% 29.88 in 1.5 mi SSW 5.8 mph - N/A Snow Light Snow
8:55 AM 14.0 °F 5.1 °F 10.4 °F 86% 29.88 in 1.5 mi SSW 5.8 mph - N/A Snow Light Snow
9:15 AM 14.0 °F 5.1 °F 10.4 °F 86% 29.87 in 1.0 mi SSW 5.8 mph - N/A Snow Light Snow
9:35 AM 14.0 °F 5.1 °F 10.4 °F 86% 29.87 in 1.0 mi SSW 5.8 mph - N/A Snow Light Snow
9:55 AM 15.8 °F 8.6 °F 10.4 °F 79% 29.87 in 1.5 mi SSW 4.6 mph - N/A Snow Light Snow
10:15 AM 15.8 °F 10.2 °F 10.4 °F 79% 29.86 in 1.5 mi SSW 3.5 mph - N/A Snow Light Snow
10:35 AM 15.8 °F 8.6 °F 10.4 °F 79% 29.87 in 2.0 mi SSW 4.6 mph - N/A Snow Light Snow
10:55 AM 15.8 °F 6.1 °F 10.4 °F 79% 29.86 in 2.0 mi SW 6.9 mph - N/A Snow Light Snow
11:15 AM 15.8 °F 8.6 °F 12.2 °F 86% 29.86 in 1.8 mi SW 4.6 mph - N/A Snow Light Snow
11:35 AM 15.8 °F 10.2 °F 12.2 °F 86% 29.85 in 1.8 mi SW 3.5 mph - N/A Snow Light Snow
11:55 AM 17.6 °F 9.3 °F 12.2 °F 79% 29.85 in 1.8 mi WSW 5.8 mph - N/A Snow Light Snow
12:15 PM 17.6 °F 10.7 °F 12.2 °F 79% 29.85 in 2.0 mi West 4.6 mph - N/A Snow Light Snow
12:35 PM 17.6 °F 9.3 °F 10.4 °F 73% 29.85 in 3.0 mi West 5.8 mph - N/A Snow Light Snow
12:55 PM 17.6 °F 8.2 °F 10.4 °F 73% 29.85 in 3.0 mi NW 6.9 mph - N/A Snow Light Snow
1:15 PM 17.6 °F 8.2 °F 12.2 °F 79% 29.85 in 3.0 mi NW 6.9 mph - N/A Snow Light Snow
1:35 PM 17.6 °F 9.3 °F 10.4 °F 73% 29.86 in 4.0 mi WNW 5.8 mph - N/A Snow Light Snow
1:55 PM 17.6 °F 8.2 °F 10.4 °F 73% 29.88 in 5.0 mi NW 6.9 mph - N/A Snow Light Snow
2:15 PM 17.6 °F 5.7 °F 10.4 °F 73% 29.89 in 10.0 mi NW 10.4 mph - N/A Snow Light Snow
2:35 PM 17.6 °F 8.2 °F 10.4 °F 73% 29.90 in 10.0 mi NW 6.9 mph - N/A   Overcast
2:55 PM 17.6 °F 8.2 °F 10.4 °F 73% 29.92 in 5.0 mi NW 6.9 mph - N/A Snow Light Snow
3:15 PM 17.6 °F 8.2 °F 10.4 °F 73% 29.93 in 7.0 mi NW 6.9 mph - N/A Snow Light Snow
3:35 PM 17.6 °F 7.3 °F 10.4 °F 73% 29.94 in 10.0 mi NW 8.1 mph - N/A   Overcast
3:55 PM 17.6 °F 9.3 °F 10.4 °F 73% 29.95 in 2.5 mi NW 5.8 mph - N/A Snow Light Snow
4:15 PM 17.6 °F 10.7 °F 10.4 °F 73% 29.96 in 10.0 mi NNW 4.6 mph - N/A   Overcast
4:35 PM 17.6 °F 10.7 °F 12.2 °F 79% 29.97 in 3.0 mi NNW 4.6 mph - N/A Snow Light Snow
4:55 PM 15.8 °F 8.6 °F 12.2 °F 86% 29.97 in 2.0 mi NW 4.6 mph - N/A Snow Light Snow
5:15 PM 15.8 °F 10.2 °F 12.2 °F 86% 29.98 in 2.5 mi NW 3.5 mph - N/A Snow Light Snow
5:35 PM 15.8 °F 7.2 °F 12.2 °F 86% 29.99 in 1.8 mi WNW 5.8 mph - N/A Snow Light Snow
5:55 PM 15.8 °F 7.2 °F 12.2 °F 86% 30.01 in 5.0 mi NW 5.8 mph - N/A Snow Light Snow
6:15 PM 15.8 °F 7.2 °F 10.4 °F 79% 30.01 in 10.0 mi NW 5.8 mph - N/A   Overcast
6:35 PM 15.8 °F 7.2 °F 10.4 °F 79% 30.02 in 10.0 mi NW 5.8 mph - N/A   Overcast
6:55 PM 14.0 °F 6.5 °F 10.4 °F 86% 30.04 in 3.0 mi WNW 4.6 mph - N/A Snow Light Snow
7:15 PM 12.2 °F 6.1 °F 10.4 °F 92% 30.04 in 7.0 mi WNW 3.5 mph - N/A Snow Light Snow
7:35 PM 12.2 °F 4.3 °F 8.6 °F 85% 30.05 in 7.0 mi NW 4.6 mph - N/A Snow Light Snow
7:55 PM 10.4 °F 4.0 °F 8.6 °F 92% 30.06 in 4.0 mi WNW 3.5 mph - N/A Snow Light Snow
8:15 PM 12.2 °F 4.3 °F 8.6 °F 85% 30.07 in 7.0 mi WNW 4.6 mph - N/A Snow Light Snow
8:35 PM 12.2 °F 2.9 °F 8.6 °F 85% 30.07 in 10.0 mi WNW 5.8 mph - N/A Snow Light Snow
8:55 PM 10.4 °F 0.8 °F 8.6 °F 92% 30.08 in 10.0 mi WNW 5.8 mph - N/A Snow Light Snow
9:15 PM 10.4 °F 2.2 °F 6.8 °F 85% 30.09 in 7.0 mi WNW 4.6 mph - N/A Snow Light Snow
9:35 PM 10.4 °F 2.2 °F 6.8 °F 85% 30.09 in - WNW 4.6 mph - N/A   Overcast
9:55 PM 10.4 °F - 6.8 °F 85% 30.10 in 7.0 mi Calm Calm - N/A Snow Light Snow
10:15 PM 8.6 °F - 6.8 °F 92% 30.10 in 7.0 mi Calm Calm - N/A Snow Light Snow
10:35 PM 8.6 °F - 6.8 °F 92% 30.11 in 7.0 mi Calm Calm - N/A Snow Light Snow
10:55 PM 6.8 °F - 5.0 °F 92% 30.12 in 5.0 mi Calm Calm - N/A Snow Light Snow
11:15 PM 5.0 °F - 3.2 °F 92% 30.13 in 4.0 mi Calm Calm - N/A Snow Light Snow
11:35 PM 6.8 °F -0.1 °F 5.0 °F 92% 30.14 in 5.0 mi NW 3.5 mph - N/A Snow Light Snow
11:55 PM 8.6 °F - 5.0 °F 85% 30.16 in 10.0 mi Calm Calm - N/A Snow Light Snow